Location: Caltech
(34.1382°N, 118.1253°W)
Time: 19:49:46
(UTC-07:00)

PCSat - Visible Passes

Search period start: 05 July 2015 00:00
Search period end: 15 July 2015 00:00
Orbit: 786 x 795 km, 67.1° (Epoch: 05 July)

Date Brightness Start Highest point End Pass type
(mag) Time Alt. Az. Time Alt. Az. Time Alt. Az.
05 Jul 10.6 01:32:32 10° NNW 01:36:01 41° NNW 01:36:01 41° NNW visible
06 Jul 10.5 01:01:49 10° NNW 01:05:37 45° N 01:05:37 45° N visible
07 Jul 10.6 00:31:13 10° NNW 00:35:17 41° NNE 00:35:17 41° NNE visible
07 Jul 12.0 02:15:46 10° WNW 02:15:58 11° WNW 02:15:58 11° WNW visible
08 Jul 10.8 00:00:42 10° N 00:04:59 34° NE 00:04:59 34° NE visible
08 Jul 11.7 01:44:22 10° NW 01:45:41 16° WNW 01:45:41 16° WNW visible
08 Jul 11.1 23:30:18 10° N 23:34:42 25° NE 23:34:45 25° NE visible
09 Jul 11.4 01:13:15 10° NW 01:15:27 23° WNW 01:15:27 23° WNW visible
09 Jul 11.4 23:00:04 10° N 23:03:45 19° NE 23:04:33 18° ENE visible
10 Jul 11.0 00:42:17 10° NW 00:45:15 32° NW 00:45:15 32° NW visible
10 Jul 11.7 22:30:07 10° NNE 22:32:45 14° NE 22:34:24 13° ENE visible
11 Jul 10.5 00:11:27 10° NNW 00:15:06 44° NW 00:15:06 44° NW visible
11 Jul 10.1 23:40:43 10° NNW 23:44:59 54° N 23:44:59 54° N visible
12 Jul 10.1 23:10:05 10° NNW 23:14:55 50° NE 23:14:55 50° NE visible
13 Jul 12.0 00:54:52 10° WNW 00:55:38 12° WNW 00:55:38 12° WNW visible
13 Jul 10.4 22:39:32 10° N 22:44:32 37° ENE 22:44:53 37° ENE visible
14 Jul 11.6 00:23:23 10° NW 00:25:36 19° WNW 00:25:36 19° WNW visible
14 Jul 10.8 22:09:07 10° N 22:13:39 27° NE 22:14:54 25° ENE visible
